Regional Weather Roundup
Issued by NWS

Home | Current Version | Previous Version | Graphics & Text | Print | Product List | Glossary On
Versions: 1 2 3 4 5 6 7 8 9 10 11 12 13 14 15 16 17 18 19 20 21 22 23 24 25 26 27 28 29 30 31 32 33 34 35 36 37 38 39 40 41 42 43 44 45 46 47 48 49
000
ASUS45 KCYS 252110
RWRWY

WYOMING REGIONAL WEATHER ROUNDUP
NATIONAL WEATHER SERVICE CHEYENNE WY
200 PM MST SUN JAN 25 2015

NOTE:  "FAIR" INDICATES FEW OR NO CLOUDS BELOW 12,000 FEET
WITH NO SIGNIFICANT WEATHER AND/OR OBSTRUCTIONS TO VISIBILITY.

WYZ001-252200-
YELLOWSTONE NATIONAL PARK

CITY           SKY/WX    TMP DP  RH WIND       PRES   REMARKS
LK YELLOWSTONE   N/A     33  26  75 VRB3      30.37F
W YELLOWSTONE  NOT AVBL

$$
WYZ002>013-054>058-071-098>099-252200-
NORTHERN WYOMING

CITY           SKY/WX    TMP DP  RH WIND       PRES   REMARKS
JACKSON        SUNNY     34  28  80 NE7       30.37S WCI  28
CODY           FAIR      57  27  30 W16G24    30.08S
GREYBULL       FAIR      36  27  69 N5        30.12S WCI  32
WORLAND        FAIR      33  24  69 CALM      30.11F
SHERIDAN       FAIR      50  36  58 S3        29.99F
BUFFALO        FAIR      56  31  38 VRB3      30.03S
GILLETTE       FAIR      52  34  50 SW10      30.00F
HULETT           N/A    N/A N/A N/A MISG        N/A
NEWCASTLE      FAIR      45  32  61 NW5       30.03F

$$
WYZ014>020-022>026-101>103-252200-
CENTRAL WYOMING

CITY           SKY/WX    TMP DP  RH WIND       PRES   REMARKS
BIG PINEY      FAIR      44  27  51 N13       30.32F
PINEDALE       MOCLDY    37  30  75 W12G17    30.31S WCI  30
DUBOIS         FAIR      45  25  45 N16G22    30.26S
LANDER         FAIR      44  29  55 NW5       30.13S
RIVERTON       FAIR      39  27  62 CALM      30.15R
CASPER         FAIR      47  28  47 SW22      30.11F
DOUGLAS        FAIR      55  27  34 NW22G31   30.08F

$$
WYZ021-027>030-104>119-252200-
SOUTHERN WYOMING

CITY           SKY/WX    TMP DP  RH WIND       PRES   REMARKS
EVANSTON       FAIR      43  31  62 SW6       30.41F
KEMMERER       FAIR      41  32  70 W18G25    30.39S
FORT BRIDGER   FAIR      48  33  55 W17       30.40S
ROCK SPRINGS   FAIR      46  29  51 W24G31    30.29F
DIXON          FAIR      42  29  61 SW8       30.35S
RAWLINS        FAIR      40  29  64 W21G33    30.20F WCI  30
SARATOGA       FAIR      45  28  53 W23G33    30.24F
LARAMIE        FAIR      46  25  43 W26G36    30.15F
CHEYENNE       FAIR      51  27  39 NW16G26   30.10F
TORRINGTON     FAIR      56  30  37 NW9G21    30.05F
PINE BLUFFS    FAIR      54  30  40 NW28G36   30.08F

$$


USA.gov is the U.S. government's official web portal to all federal, state and local government web resources and services.